Charles City, IA

8:58 AM CDT on July 24, 2017 (GMT -0500)
Charles City Municipal

Weather History for KCCY - March, 2014

Change the Weather History Date:

Monday, March 24, 2014

  Actual Average Record
Temperature  
Mean Temperature 26 °F -  
Max Temperature 32 °F 46 °F 75 °F (1963)
Min Temperature 19 °F 26 °F -5 °F (1974)
Degree Days  
Heating Degree Days 38    
Moisture  
Dew Point 20 °F    
Average Humidity 79    
Maximum Humidity 93    
Minimum Humidity 59    
Precipitation  
Precipitation 0.00 in - - ()
Sea Level Pressure  
Sea Level Pressure 30.24 in    
Wind  
Wind Speed 8 mph (SW)    
Max Wind Speed 21 mph    
Max Gust Speed 22 mph    
Visibility 7 miles    
Events Snow    
Averages and records for this station are not official NWS values.
T = Trace of Precipitation, MM = Missing Value Source: NWS Daily Summary

Daily Weather History Graph

Daily Weather History Graph

Search for Another Location

Airport or City:

Trip Planner

Search our weather history database for the weather conditions in past years. The results will help you decide how hot, cold, wet, or windy it might be!

Date:

Astronomy

Mar. 24, 2014 Rise Set
Actual Time 7:06 AM CDT 7:27 PM CDT
Civil Twilight 6:38 AM CDT 7:55 PM CDT
Nautical Twilight 6:04 AM CDT 8:29 PM CDT
Astronomical Twilight 5:30 AM CDT 9:03 PM CDT
Moon 2:45 AM CDT 12:45 PM CDT
Length of Visible Light 13h 17m
Length of Day
12h 20m
Last Quarter, 43% of the Moon is Illuminated
Mar 24
Last Quarter
Mar 30
New
Apr 7
First Quarter
Apr 15
Full
Apr 22
Last Quarter

Hourly Weather History & Observations

Time (CDT) Temp. Windchill Dew Point Humidity Pressure Visibility Wind Dir Wind Speed Gust Speed Precip Events Conditions
12:15 AM 23.0 °F 15.8 °F 14.0 °F 68% 30.36 in 10.0 mi South 5.8 mph - N/A   Mostly Cloudy
12:35 AM 23.0 °F 15.8 °F 14.0 °F 68% 30.36 in 10.0 mi South 5.8 mph - N/A   Mostly Cloudy
12:55 AM 23.0 °F 15.8 °F 14.0 °F 68% 30.36 in 10.0 mi South 5.8 mph - N/A   Overcast
1:15 AM 23.0 °F 17.0 °F 14.0 °F 68% 30.36 in 10.0 mi South 4.6 mph - N/A   Overcast
1:35 AM 23.0 °F 17.0 °F 14.0 °F 68% 30.36 in 10.0 mi South 4.6 mph - N/A   Overcast
1:55 AM 23.0 °F 15.8 °F 15.8 °F 74% 30.36 in 10.0 mi South 5.8 mph - N/A   Overcast
2:15 AM 23.0 °F 15.8 °F 14.0 °F 68% 30.35 in 10.0 mi South 5.8 mph - N/A   Overcast
2:35 AM 23.0 °F 15.8 °F 14.0 °F 68% 30.35 in 10.0 mi South 5.8 mph - N/A   Overcast
2:55 AM 23.0 °F 13.9 °F 15.8 °F 74% 30.35 in 10.0 mi South 8.1 mph - N/A   Overcast
3:15 AM 23.0 °F 14.7 °F 15.8 °F 74% 30.32 in 10.0 mi South 6.9 mph - N/A   Overcast
3:35 AM 23.0 °F 14.7 °F 15.8 °F 74% 30.33 in 10.0 mi SSW 6.9 mph - N/A   Overcast
3:55 AM 23.0 °F 14.7 °F 15.8 °F 74% 30.34 in 10.0 mi SW 6.9 mph - N/A   Overcast
4:15 AM 23.0 °F 17.0 °F 17.6 °F 80% 30.34 in 4.0 mi SW 4.6 mph - N/A   Mostly Cloudy
4:35 AM 23.0 °F 17.0 °F 19.4 °F 86% 30.33 in 2.5 mi SSW 4.6 mph - N/A Snow Light Snow
4:50 AM 23.0 °F 18.4 °F 19.4 °F 86% 30.33 in 2.0 mi SSW 3.5 mph - N/A Snow Light Snow
5:15 AM 23.0 °F 17.0 °F 19.4 °F 86% 30.33 in 3.0 mi SSW 4.6 mph - N/A Snow Light Snow
5:35 AM 23.0 °F 14.7 °F 19.4 °F 86% 30.32 in 5.0 mi SSW 6.9 mph - N/A   Overcast
5:55 AM 23.0 °F 17.0 °F 19.4 °F 86% 30.31 in 3.0 mi South 4.6 mph - N/A Snow Light Snow
6:15 AM 23.0 °F 15.8 °F 19.4 °F 86% 30.31 in 3.0 mi South 5.8 mph - N/A   Mostly Cloudy
6:35 AM 23.0 °F 15.8 °F 19.4 °F 86% 30.31 in 4.0 mi South 5.8 mph - N/A   Overcast
6:55 AM 23.0 °F 15.8 °F 19.4 °F 86% 30.32 in 2.5 mi SSW 5.8 mph - N/A   Overcast
7:15 AM 23.0 °F 15.8 °F 19.4 °F 86% 30.32 in 4.0 mi SSW 5.8 mph - N/A   Overcast
7:35 AM 23.0 °F 13.9 °F 19.4 °F 86% 30.32 in 6.0 mi SSW 8.1 mph - N/A   Overcast
7:55 AM 23.0 °F 13.9 °F 19.4 °F 86% 30.32 in 2.0 mi SSW 8.1 mph - N/A Snow Light Snow
8:15 AM 23.0 °F 14.7 °F 19.4 °F 86% 30.31 in 2.0 mi SSW 6.9 mph - N/A Snow Light Snow
8:35 AM 23.0 °F 13.9 °F 19.4 °F 86% 30.30 in 3.0 mi SSW 8.1 mph - N/A   Overcast
8:55 AM 23.0 °F 13.1 °F 19.4 °F 86% 30.30 in 2.5 mi SSW 9.2 mph - N/A   Mostly Cloudy
9:15 AM 23.0 °F 12.4 °F 19.4 °F 86% 30.29 in 9.0 mi South 10.4 mph - N/A   Overcast
9:35 AM 24.8 °F 15.3 °F 19.4 °F 80% 30.29 in 10.0 mi SSW 9.2 mph - N/A   Overcast
9:55 AM 24.8 °F 14.0 °F 21.2 °F 86% 30.29 in 10.0 mi South 11.5 mph - N/A   Overcast
10:15 AM 24.8 °F 13.4 °F 21.2 °F 86% 30.29 in - SSW 12.7 mph - N/A   Overcast
10:35 AM 24.8 °F 14.0 °F 21.2 °F 86% 30.28 in 3.0 mi SSW 11.5 mph - N/A   Overcast
10:55 AM 26.6 °F 16.8 °F 23.0 °F 86% 30.28 in 3.0 mi SSW 10.4 mph - N/A   Overcast
11:15 AM 26.6 °F 16.2 °F 23.0 °F 86% 30.28 in 3.0 mi SSW 11.5 mph - N/A   Overcast
11:35 AM 26.6 °F 16.2 °F 23.0 °F 86% 30.28 in 2.5 mi SW 11.5 mph - N/A   Overcast
11:55 AM 28.4 °F 19.1 °F 23.0 °F 80% 30.27 in 2.5 mi SW 10.4 mph - N/A   Overcast
12:15 PM 28.4 °F 19.1 °F 24.8 °F 86% 30.27 in 1.0 mi SSW 10.4 mph - N/A Snow Light Snow
12:35 PM 28.4 °F 18.5 °F 24.8 °F 86% 30.26 in 0.8 mi SW 11.5 mph - N/A Snow Light Snow
1:15 PM 28.4 °F 19.1 °F 24.8 °F 86% 30.24 in 1.8 mi SW 10.4 mph - N/A Snow Light Snow
1:35 PM 30.2 °F 21.3 °F 24.8 °F 80% 30.23 in 4.0 mi SW 10.4 mph - N/A Snow Light Snow
1:55 PM 30.2 °F 21.9 °F 24.8 °F 80% 30.22 in 1.8 mi SW 9.2 mph - N/A Snow Light Snow
2:15 PM 30.2 °F 21.9 °F 26.6 °F 86% 30.21 in 2.0 mi SW 9.2 mph - N/A Snow Light Snow
2:35 PM 30.2 °F 20.8 °F 26.6 °F 86% 30.20 in 2.5 mi SW 11.5 mph - N/A Snow Light Snow
2:55 PM 30.2 °F 20.8 °F 26.6 °F 86% 30.19 in 1.5 mi WSW 11.5 mph - N/A Snow Light Snow
3:15 PM 30.2 °F 20.8 °F 26.6 °F 86% 30.18 in 1.5 mi WSW 11.5 mph - N/A Snow Light Snow
3:35 PM 30.2 °F 18.9 °F 26.6 °F 86% 30.17 in 6.0 mi WSW 16.1 mph - N/A   Haze
3:55 PM 30.2 °F 18.5 °F 26.6 °F 86% 30.17 in 10.0 mi West 17.3 mph - N/A   Mostly Cloudy
4:15 PM 30.2 °F 19.8 °F 24.8 °F 80% 30.16 in 10.0 mi West 13.8 mph 21.9 mph N/A   Overcast
4:35 PM 32.0 °F 22.1 °F 24.8 °F 75% 30.14 in 9.0 mi WSW 13.8 mph - N/A   Overcast
4:55 PM 32.0 °F 21.6 °F 24.8 °F 75% 30.13 in 10.0 mi WSW 15.0 mph - N/A   Overcast
5:15 PM 32.0 °F 22.1 °F 24.8 °F 75% 30.13 in 10.0 mi West 13.8 mph - N/A   Overcast
5:35 PM 32.0 °F 22.1 °F 24.8 °F 75% 30.12 in 10.0 mi WSW 13.8 mph - N/A   Mostly Cloudy
5:55 PM 32.0 °F 19.8 °F 23.0 °F 69% 30.13 in 4.0 mi West 20.7 mph - N/A Snow Light Snow
6:15 PM 28.4 °F 17.5 °F 26.6 °F 93% 30.13 in 0.2 mi WNW 13.8 mph - N/A Snow Light Snow
6:35 PM 28.4 °F 19.1 °F 26.6 °F 93% 30.12 in 8.0 mi WNW 10.4 mph - N/A Snow Light Snow
6:55 PM 28.4 °F 19.7 °F 24.8 °F 86% 30.12 in 10.0 mi WNW 9.2 mph - N/A   Overcast
7:15 PM 28.4 °F 19.7 °F 24.8 °F 86% 30.12 in 10.0 mi West 9.2 mph - N/A   Overcast
7:35 PM 26.6 °F 17.5 °F 23.0 °F 86% 30.12 in 10.0 mi WNW 9.2 mph - N/A   Mostly Cloudy
7:55 PM 26.6 °F 15.7 °F 21.2 °F 80% 30.12 in 10.0 mi WNW 12.7 mph 19.6 mph N/A   Scattered Clouds
8:15 PM 26.6 °F 14.3 °F 19.4 °F 74% 30.12 in 10.0 mi NW 16.1 mph - N/A   Clear
8:35 PM 26.6 °F 15.2 °F 19.4 °F 74% 30.12 in 10.0 mi NW 13.8 mph - N/A   Clear
8:55 PM 26.6 °F 16.8 °F 19.4 °F 74% 30.13 in 10.0 mi NW 10.4 mph - N/A   Scattered Clouds
9:15 PM 26.6 °F 16.2 °F 19.4 °F 74% 30.13 in 10.0 mi NW 11.5 mph 18.4 mph N/A   Scattered Clouds
9:35 PM 26.6 °F 15.7 °F 17.6 °F 69% 30.13 in 10.0 mi NW 12.7 mph - N/A   Clear
9:55 PM 24.8 °F 12.9 °F 14.0 °F 64% 30.13 in 10.0 mi NW 13.8 mph 20.7 mph N/A   Clear
10:15 PM 24.8 °F 14.0 °F 12.2 °F 59% 30.13 in 10.0 mi NW 11.5 mph - N/A   Clear
10:35 PM 24.8 °F 14.6 °F 14.0 °F 64% 30.13 in 10.0 mi NW 10.4 mph - N/A   Clear
10:55 PM 23.0 °F 13.1 °F 12.2 °F 63% 30.13 in 10.0 mi NW 9.2 mph - N/A   Clear
11:15 PM 23.0 °F 14.7 °F 12.2 °F 63% 30.13 in 10.0 mi NW 6.9 mph - N/A   Clear
11:35 PM 21.2 °F 13.6 °F 12.2 °F 68% 30.13 in 10.0 mi NW 5.8 mph - N/A   Clear
11:55 PM 19.4 °F 11.5 °F 12.2 °F 74% 30.12 in 10.0 mi WNW 5.8 mph - N/A   Clear